Canadian, TX

11:49 AM CDT on August 23, 2019 (GMT -0500)
Hemphill County

Weather History for KHHF - June, 2019

Change the Weather History Date:

Sunday, June 9, 2019

  Actual Average (KPPA) Record (KPPA)
Temperature  
Mean Temperature 67 °F -  
Max Temperature 75 °F 86 °F 107 °F (1981)
Min Temperature 58 °F 59 °F 48 °F (1966)
Cooling Degree Days 2    
Growing Degree Days 17 (Base 50)    
Moisture  
Dew Point 60 °F    
Average Humidity 80    
Maximum Humidity 95    
Minimum Humidity 66    
Precipitation  
Precipitation 0.00 in - - ()
Sea Level Pressure  
Sea Level Pressure 30.14 in    
Wind  
Wind Speed 11 mph (NNE)    
Max Wind Speed 23 mph    
Max Gust Speed 40 mph    
Visibility 10 miles    
Events Rain    
Averages and records for this station are not official NWS values.
T = Trace of Precipitation, MM = Missing Value Source: NWS Daily Summary

Daily Weather History Graph

Daily Weather History Graph

Search for Another Location

Airport or City:

Astronomy

Jun. 09, 2019 Rise Set
Actual Time 6:24 AM CDT 8:57 PM CDT
Civil Twilight 5:54 AM CDT 9:27 PM CDT
Nautical Twilight 5:17 AM CDT 10:04 PM CDT
Astronomical Twilight 4:36 AM CDT 10:45 PM CDT
Moon 12:58 PM CDT (6/9) 1:44 AM CDT (6/9)
Length of Visible Light 15h 32m
Length of Day
14h 32m
Waxing Crescent, 44% of the Moon is Illuminated
Jun 9
Waxing Crescent
Jun 10
First Quarter
Jun 17
Full
Jun 25
Last Quarter
Jul 2
New

Hourly Weather History & Observations

Time (CDT) Temp. Dew Point Humidity Pressure Visibility Wind Dir Wind Speed Gust Speed Precip Events Conditions
12:15 AM 76.1 °F 68.0 °F 76% 29.84 in 10.0 mi SSE 8.1 mph - N/A   Clear
12:35 AM 75.6 °F 67.6 °F 76% 29.85 in 10.0 mi SE 4.6 mph - N/A   Clear
12:55 AM 75.2 °F 67.6 °F 77% 29.85 in 10.0 mi East 5.8 mph - N/A   Clear
1:15 AM 75.0 °F 67.8 °F 78% 29.85 in 10.0 mi SSE 5.8 mph - N/A   Clear
1:35 AM 75.2 °F 67.3 °F 76% 29.86 in 10.0 mi SE 9.2 mph - N/A   Clear
1:55 AM 75.2 °F 67.8 °F 78% 29.85 in 10.0 mi SSE 9.2 mph - N/A   Clear
2:15 AM 75.0 °F 67.8 °F 78% 29.86 in 10.0 mi SE 8.1 mph - N/A   Clear
2:35 AM 73.4 °F 67.1 °F 81% 29.85 in 10.0 mi SE 6.9 mph - N/A   Clear
2:55 AM 73.6 °F 67.1 °F 80% 29.85 in 10.0 mi SE 6.9 mph - N/A   Clear
3:15 AM 72.9 °F 67.1 °F 82% 29.85 in 10.0 mi SSE 5.8 mph - N/A   Clear
3:35 AM 72.5 °F 66.4 °F 81% 29.85 in 10.0 mi South 5.8 mph - N/A   Clear
3:55 AM 72.1 °F 66.4 °F 82% 29.86 in 10.0 mi ESE 4.6 mph - N/A   Clear
4:15 AM 71.6 °F 66.2 °F 83% 29.86 in 10.0 mi Calm Calm - N/A   Clear
4:35 AM 72.5 °F 67.1 °F 83% 29.86 in 10.0 mi Calm Calm - N/A   Clear
4:55 AM 72.5 °F 67.3 °F 84% 29.88 in 10.0 mi West 4.6 mph - N/A   Clear
5:35 AM 70.3 °F 67.3 °F 90% 29.91 in 10.0 mi WSW 5.8 mph - N/A   Clear
5:55 AM 70.0 °F 67.6 °F 92% 29.92 in 10.0 mi SSW 4.6 mph - N/A   Clear
6:15 AM 68.2 °F 66.6 °F 95% 29.93 in 10.0 mi SW 4.6 mph - N/A   Scattered Clouds
6:35 AM 68.4 °F 66.9 °F 95% 29.94 in 10.0 mi South 5.8 mph - N/A   Scattered Clouds
6:55 AM 70.0 °F 66.7 °F 89% 29.96 in 10.0 mi WNW 12.7 mph 18.4 mph N/A   Mostly Cloudy
7:15 AM 70.2 °F 65.7 °F 86% 29.97 in 10.0 mi NW 12.7 mph 18.4 mph N/A   Overcast
7:35 AM 70.0 °F 65.8 °F 87% 29.98 in 10.0 mi NW 10.4 mph - N/A   Scattered Clouds
7:55 AM 70.0 °F 66.0 °F 87% 29.98 in 10.0 mi NW 13.8 mph 18.4 mph N/A   Scattered Clouds
8:15 AM 70.2 °F 66.4 °F 88% 29.99 in 10.0 mi NNW 11.5 mph 18.4 mph N/A   Mostly Cloudy
8:35 AM 70.0 °F 65.5 °F 86% 30.01 in 10.0 mi NNW 13.8 mph - N/A   Mostly Cloudy
8:55 AM 72.0 °F 65.8 °F 81% 30.03 in 10.0 mi North 15.0 mph 24.2 mph N/A   Scattered Clouds
9:15 AM 73.4 °F 67.1 °F 81% 30.05 in 10.0 mi NNE 17.3 mph 25.3 mph N/A   Scattered Clouds
9:35 AM 71.8 °F 68.0 °F 88% 30.07 in 10.0 mi NE 16.1 mph 26.5 mph N/A   Overcast
9:55 AM 69.6 °F 66.7 °F 91% 30.09 in 5.0 mi NE 21.9 mph 31.1 mph N/A Rain Light Rain
10:15 AM 66.7 °F 64.6 °F 93% 30.12 in 7.0 mi NNE 23.0 mph 29.9 mph N/A Rain Rain
10:35 AM 65.3 °F 63.0 °F 92% 30.15 in 10.0 mi NNE 21.9 mph 33.4 mph N/A   Overcast
10:55 AM 64.9 °F 61.9 °F 90% 30.16 in 10.0 mi North 23.0 mph 29.9 mph N/A   Overcast
11:15 AM 60.8 °F 58.3 °F 91% 30.18 in 10.0 mi North 21.9 mph 32.2 mph N/A   Overcast
11:35 AM 61.2 °F 57.7 °F 88% 30.19 in 10.0 mi North 23.0 mph 40.3 mph N/A   Overcast
11:55 AM 61.2 °F 57.2 °F 87% 30.21 in 10.0 mi North 23.0 mph 33.4 mph N/A   Overcast
12:15 PM 61.2 °F 56.7 °F 85% 30.22 in 10.0 mi NNE 23.0 mph 39.1 mph N/A   Overcast
12:35 PM 60.8 °F 56.7 °F 86% 30.23 in 10.0 mi North 23.0 mph 32.2 mph N/A   Overcast
12:55 PM 60.4 °F 57.0 °F 88% 30.24 in 10.0 mi North 19.6 mph 32.2 mph N/A   Overcast
1:15 PM 59.5 °F 55.8 °F 87% 30.25 in 10.0 mi NNE 18.4 mph 32.2 mph N/A   Overcast
1:35 PM 59.4 °F 55.4 °F 87% 30.25 in 10.0 mi North 18.4 mph 33.4 mph N/A   Overcast
1:55 PM 59.0 °F 55.4 °F 88% 30.26 in 10.0 mi North 17.3 mph 29.9 mph N/A   Overcast
2:15 PM 58.6 °F 55.4 °F 89% 30.28 in 10.0 mi NNE 17.3 mph 24.2 mph N/A   Overcast
2:35 PM 58.6 °F 55.4 °F 89% 30.29 in 10.0 mi North 17.3 mph 26.5 mph N/A   Overcast
2:55 PM 58.5 °F 55.0 °F 88% 30.29 in 10.0 mi NNE 18.4 mph 24.2 mph N/A   Overcast
3:15 PM 58.8 °F 55.0 °F 87% 30.28 in 10.0 mi North 13.8 mph 21.9 mph N/A   Overcast
3:35 PM 59.9 °F 54.9 °F 83% 30.29 in 10.0 mi North 17.3 mph 25.3 mph N/A   Overcast
3:55 PM 60.8 °F 54.5 °F 80% 30.29 in 10.0 mi North 23.0 mph 31.1 mph N/A   Overcast
4:15 PM 61.2 °F 54.3 °F 78% 30.29 in 10.0 mi North 16.1 mph 33.4 mph N/A   Overcast
4:35 PM 62.1 °F 53.8 °F 74% 30.30 in 10.0 mi North 18.4 mph 28.8 mph N/A   Overcast
4:55 PM 62.6 °F 53.6 °F 72% 30.30 in 10.0 mi North 18.4 mph 27.6 mph N/A   Overcast
5:15 PM 62.6 °F 52.9 °F 70% 30.30 in 10.0 mi North 19.6 mph 25.3 mph N/A   Overcast
5:35 PM 63.5 °F 53.8 °F 71% 30.29 in 10.0 mi North 16.1 mph 23.0 mph N/A   Overcast
5:55 PM 63.5 °F 54.1 °F 72% 30.29 in 10.0 mi North 21.9 mph 28.8 mph N/A   Overcast
6:15 PM 63.5 °F 53.6 °F 70% 30.30 in 10.0 mi NNE 18.4 mph 27.6 mph N/A   Overcast
6:35 PM 63.1 °F 52.7 °F 69% 30.30 in 10.0 mi NNE 13.8 mph 27.6 mph N/A   Overcast
6:55 PM 63.1 °F 52.5 °F 68% 30.31 in 10.0 mi NNE 11.5 mph 24.2 mph N/A   Overcast
7:15 PM 63.1 °F 52.7 °F 69% 30.31 in 10.0 mi NNE 12.7 mph - N/A   Overcast
7:35 PM 63.0 °F 52.5 °F 69% 30.31 in 10.0 mi North 12.7 mph 20.7 mph N/A   Overcast
7:55 PM 62.6 °F 51.3 °F 66% 30.32 in 10.0 mi NNE 16.1 mph 21.9 mph N/A   Overcast
8:15 PM 62.6 °F 51.3 °F 66% 30.33 in 10.0 mi NNE 11.5 mph 18.4 mph N/A   Overcast
8:35 PM 62.6 °F 51.6 °F 67% 30.33 in 10.0 mi North 10.4 mph 17.3 mph N/A   Overcast
8:55 PM 62.2 °F 51.8 °F 69% 30.34 in 10.0 mi NNE 9.2 mph 16.1 mph N/A   Overcast
9:15 PM 62.2 °F 51.8 °F 69% 30.35 in 10.0 mi NNE 10.4 mph 17.3 mph N/A   Overcast
9:35 PM 62.1 °F 52.2 °F 70% 30.35 in 10.0 mi NNE 11.5 mph 16.1 mph N/A   Overcast
9:55 PM 62.1 °F 52.3 °F 70% 30.35 in 10.0 mi North 6.9 mph - N/A   Overcast
10:15 PM 61.9 °F 51.6 °F 69% 30.36 in 10.0 mi NNE 11.5 mph - N/A   Overcast
10:35 PM 61.7 °F 51.1 °F 68% 30.37 in 10.0 mi NNE 9.2 mph - N/A   Overcast
10:55 PM 61.7 °F 50.9 °F 68% 30.38 in 10.0 mi North 11.5 mph - N/A   Overcast
11:15 PM 61.2 °F 51.1 °F 69% 30.39 in 10.0 mi NNE 5.8 mph - N/A   Overcast
11:35 PM 61.2 °F 51.4 °F 70% 30.39 in 10.0 mi North 6.9 mph - N/A   Overcast
11:55 PM 61.0 °F 51.4 °F 71% 30.40 in 10.0 mi North 6.9 mph - N/A   Overcast